Torna al catalogo

STARLINK-32850

AttivoComunicazioniVLEO
NORAD 62950·PAYLOAD·🇺🇸 United States

Lanciato Feb 11, 2025 da Vandenberg Space Force Base

Loading…

Prossimi Passaggi (prossime 24 ore)

TLE

AggiornatoSource: CelesTrak SupGP

Epoca: Sep 15, 2026, 03:20 UTC

1 62950C 25029C   26258.13937500 -.00029404  00000+0 -94579-3 0  2586
2 62950  53.1591  71.0398 0001282  86.9457 269.6087 15.31709164    14

Traccia STARLINK-32850 in tempo reale con AllMySat

Download on the App Store